Stündliche Wetter Homichi

Heute, 16 Juni, Mittwoch

Zeit Temperatur Niederschläge Wind Luftdruck Luftfeuchtigkeit
00:00 +16°C° 0 mm 3 m/S 749 mmHg 94%
01:00 +14°C° 0 mm 3 m/S 749 mmHg 93%
02:00 +14°C° 0 mm 3 m/S 749 mmHg 92%
03:00 +13°C° 0 mm 3 m/S 750 mmHg 92%
04:00 +11°C° 0 mm 3 m/S 750 mmHg 92%
05:00 +10°C° 0 mm 3 m/S 750 mmHg 92%
06:00 +12°C° 0 mm 3 m/S 750 mmHg 86%
07:00 +13°C° 0 mm 3 m/S 750 mmHg 80%
08:00 +14°C° 0 mm 3 m/S 751 mmHg 75%
09:00 +17°C° 0 mm 3 m/S 751 mmHg 69%
10:00 +18°C° 0 mm 3 m/S 751 mmHg 63%
11:00 +20°C° 0 mm 3 m/S 751 mmHg 57%
12:00 +20°C° 0 mm 3 m/S 751 mmHg 56%
13:00 +21°C° 0 mm 3 m/S 751 mmHg 54%
14:00 +22°C° 0 mm 3 m/S 751 mmHg 52%
15:00 +21°C° 0 mm 3 m/S 751 mmHg 54%
16:00 +21°C° 0 mm 3 m/S 751 mmHg 57%
17:00 +21°C° 0 mm 3 m/S 751 mmHg 59%
18:00 +20°C° 0 mm 3 m/S 751 mmHg 65%
19:00 +18°C° 0 mm 2 m/S 751 mmHg 71%
20:00 +17°C° 0 mm 2 m/S 751 mmHg 77%
21:00 +16°C° 0 mm 2 m/S 752 mmHg 78%
22:00 +15°C° 0 mm 2 m/S 752 mmHg 79%
23:00 +13°C° 0 mm 2 m/S 752 mmHg 79%

Morgen, 17 Juni, Donnerstag

Zeit Temperatur Niederschläge Wind Luftdruck Luftfeuchtigkeit
00:00 +13°C° 0 mm 2 m/S 752 mmHg 81%
01:00 +12°C° 0 mm 2 m/S 753 mmHg 83%
02:00 +12°C° 0 mm 2 m/S 753 mmHg 85%
03:00 +12°C° 0 mm 2 m/S 753 mmHg 85%
04:00 +12°C° 0 mm 2 m/S 753 mmHg 84%
05:00 +12°C° 0 mm 2 m/S 753 mmHg 84%
06:00 +14°C° 0 mm 2 m/S 754 mmHg 78%
07:00 +16°C° 0 mm 2 m/S 754 mmHg 73%
08:00 +18°C° 0 mm 2 m/S 754 mmHg 68%
09:00 +20°C° 0 mm 2 m/S 754 mmHg 64%
10:00 +21°C° 0 mm 2 m/S 754 mmHg 60%
11:00 +24°C° 0 mm 2 m/S 754 mmHg 57%
12:00 +24°C° 0 mm 2 m/S 754 mmHg 55%
13:00 +25°C° 0 mm 2 m/S 754 mmHg 53%
14:00 +25°C° 0 mm 2 m/S 754 mmHg 51%
15:00 +25°C° 0 mm 2 m/S 754 mmHg 54%
16:00 +25°C° 0 mm 3 m/S 754 mmHg 56%
17:00 +25°C° 0 mm 3 m/S 754 mmHg 59%
18:00 +24°C° 0 mm 2 m/S 754 mmHg 65%
19:00 +21°C° 0 mm 2 m/S 754 mmHg 70%
20:00 +20°C° 0 mm 2 m/S 754 mmHg 76%
21:00 +19°C° 0 mm 2 m/S 754 mmHg 78%
22:00 +18°C° 0 mm 2 m/S 754 mmHg 80%
23:00 +16°C° 0 mm 3 m/S 755 mmHg 82%

übermorgen, 18 Juni, Freitag

Zeit Temperatur Niederschläge Wind Luftdruck Luftfeuchtigkeit
00:00 +16°C° 0 mm 3 m/S 755 mmHg 84%
01:00 +14°C° 0 mm 3 m/S 755 mmHg 86%
02:00 +14°C° 0 mm 3 m/S 755 mmHg 87%
03:00 +14°C° 0 mm 3 m/S 755 mmHg 88%
04:00 +15°C° 0 mm 2 m/S 755 mmHg 88%
05:00 +15°C° 0 mm 2 m/S 755 mmHg 89%
06:00 +17°C° 0 mm 3 m/S 755 mmHg 85%
07:00 +19°C° 0 mm 3 m/S 755 mmHg 80%
08:00 +21°C° 0 mm 3 m/S 755 mmHg 76%
09:00 +22°C° 0 mm 4 m/S 755 mmHg 71%
10:00 +23°C° 0 mm 4 m/S 755 mmHg 67%
11:00 +26°C° 0 mm 4 m/S 755 mmHg 62%
12:00 +26°C° 0 mm 4 m/S 755 mmHg 59%
13:00 +27°C° 0 mm 4 m/S 755 mmHg 57%
14:00 +27°C° 0 mm 4 m/S 755 mmHg 54%
15:00 +27°C° 0 mm 4 m/S 754 mmHg 57%
16:00 +27°C° 0 mm 4 m/S 754 mmHg 59%
17:00 +26°C° 0 mm 3 m/S 754 mmHg 62%
18:00 +25°C° 0 mm 3 m/S 754 mmHg 68%
19:00 +22°C° 0 mm 3 m/S 754 mmHg 75%
20:00 +20°C° 0 mm 3 m/S 754 mmHg 81%
21:00 +19°C° 0 mm 3 m/S 754 mmHg 82%
22:00 +18°C° 0 mm 3 m/S 754 mmHg 84%
23:00 +17°C° 0 mm 3 m/S 754 mmHg 85%

19 Juni, Samstag

Zeit Temperatur Niederschläge Wind Luftdruck Luftfeuchtigkeit
00:00 +17°C° 0 mm 3 m/S 754 mmHg 87%
01:00 +16°C° 0 mm 3 m/S 754 mmHg 88%
02:00 +16°C° 0 mm 3 m/S 754 mmHg 89%
03:00 +16°C° 0 mm 3 m/S 754 mmHg 90%
04:00 +16°C° 0 mm 3 m/S 754 mmHg 91%
05:00 +16°C° 0 mm 2 m/S 755 mmHg 92%
06:00 +18°C° 0 mm 3 m/S 755 mmHg 87%
07:00 +20°C° 0 mm 3 m/S 755 mmHg 82%
08:00 +22°C° 0 mm 3 m/S 755 mmHg 78%
09:00 +23°C° 0 mm 4 m/S 754 mmHg 73%
10:00 +25°C° 0 mm 4 m/S 754 mmHg 69%
11:00 +26°C° 0 mm 4 m/S 754 mmHg 64%
12:00 +27°C° 0 mm 4 m/S 754 mmHg 62%
13:00 +28°C° 0 mm 4 m/S 754 mmHg 59%
14:00 +28°C° 0 mm 3 m/S 753 mmHg 56%
15:00 +28°C° 0 mm 3 m/S 753 mmHg 58%
16:00 +28°C° 0 mm 3 m/S 753 mmHg 60%
17:00 +28°C° 0 mm 3 m/S 753 mmHg 62%
18:00 +27°C° 0 mm 3 m/S 753 mmHg 68%
19:00 +25°C° 0 mm 3 m/S 753 mmHg 74%
20:00 +22°C° 0 mm 3 m/S 753 mmHg 79%
21:00 +21°C° 0 mm 3 m/S 753 mmHg 82%
22:00 +20°C° 0 mm 3 m/S 753 mmHg 84%
23:00 +19°C° 0 mm 3 m/S 753 mmHg 86%

20 Juni, Sonntag

Zeit Temperatur Niederschläge Wind Luftdruck Luftfeuchtigkeit
00:00 +18°C° 0 mm 3 m/S 753 mmHg 88%
01:00 +18°C° 0 mm 3 m/S 753 mmHg 91%
02:00 +17°C° 0 mm 3 m/S 753 mmHg 93%
03:00 +17°C° 0 mm 3 m/S 753 mmHg 93%
04:00 +17°C° 0 mm 2 m/S 753 mmHg 93%
05:00 +18°C° 0 mm 2 m/S 753 mmHg 94%
06:00 +19°C° 0 mm 3 m/S 753 mmHg 88%
07:00 +21°C° 0 mm 3 m/S 753 mmHg 83%
08:00 +24°C° 0 mm 3 m/S 753 mmHg 77%
09:00 +25°C° 0 mm 3 m/S 753 mmHg 72%
10:00 +26°C° 0 mm 4 m/S 753 mmHg 68%
11:00 +27°C° 0 mm 4 m/S 753 mmHg 63%
12:00 +27°C° 0 mm 4 m/S 753 mmHg 61%
13:00 +28°C° 0 mm 4 m/S 752 mmHg 59%
14:00 +28°C° 0 mm 4 m/S 752 mmHg 57%
15:00 +28°C° 0.1 mm 3 m/S 752 mmHg 61%
16:00 +28°C° 0.1 mm 3 m/S 752 mmHg 65%
17:00 +27°C° 0.1 mm 3 m/S 752 mmHg 69%
18:00 +26°C° 0.2 mm 3 m/S 752 mmHg 73%
19:00 +25°C° 0.2 mm 2 m/S 752 mmHg 78%
20:00 +24°C° 0.2 mm 2 m/S 751 mmHg 82%
21:00 +23°C° 0 mm 2 m/S 751 mmHg 85%
22:00 +21°C° 0 mm 2 m/S 751 mmHg 87%
23:00 +20°C° 0 mm 3 m/S 752 mmHg 90%

21 Juni, Montag

Zeit Temperatur Niederschläge Wind Luftdruck Luftfeuchtigkeit
00:00 +19°C° 0 mm 3 m/S 751 mmHg 91%
01:00 +19°C° 0 mm 3 m/S 751 mmHg 92%
02:00 +19°C° 0 mm 3 m/S 751 mmHg 93%
03:00 +19°C° 0 mm 2 m/S 751 mmHg 93%
04:00 +19°C° 0 mm 2 m/S 751 mmHg 93%
05:00 +19°C° 0 mm 2 m/S 751 mmHg 93%
06:00 +20°C° 0 mm 2 m/S 751 mmHg 88%
07:00 +22°C° 0 mm 3 m/S 751 mmHg 82%
08:00 +24°C° 0 mm 3 m/S 751 mmHg 77%
09:00 +25°C° 0 mm 3 m/S 751 mmHg 72%
10:00 +26°C° 0 mm 4 m/S 751 mmHg 67%
11:00 +27°C° 0 mm 4 m/S 751 mmHg 62%
12:00 +28°C° 0 mm 4 m/S 751 mmHg 60%
13:00 +28°C° 0 mm 5 m/S 750 mmHg 57%
14:00 +29°C° 0 mm 5 m/S 750 mmHg 55%
15:00 +29°C° 0 mm 5 m/S 750 mmHg 58%
16:00 +28°C° 0 mm 4 m/S 750 mmHg 61%
17:00 +28°C° 0 mm 4 m/S 749 mmHg 63%
18:00 +27°C° 0 mm 4 m/S 749 mmHg 69%
19:00 +25°C° 0 mm 3 m/S 749 mmHg 74%
20:00 +24°C° 0 mm 3 m/S 749 mmHg 79%
21:00 +22°C° 0 mm 3 m/S 749 mmHg 81%
22:00 +21°C° 0 mm 3 m/S 748 mmHg 82%
23:00 +21°C° 0 mm 3 m/S 748 mmHg 84%
Mehr zeigen

Wir brauchen deine Erlaubnis

Meteoprog und unser Service Anbieter werden persönliche Daten aufbewahren, so wie Cookies, Geräte Bezeichnung oder ähnliche Technologien von deinem Gerät und Prozess, so wie Persönliche Daten Inhalte und Werbungen, genauso wie social Media und den Verkehr zu analysieren.

  • Aufbewahrung und/oder Zugang zu deiner Geräte Informationen.

    Cookies, Geräte Bezeichnung oder andere Informationen, können aufbewahrt oder Zugang zu deinem Gerät erhalten, für den Grund, der oben angegeben wird.

  • Personalisierte Werbung und Inhalte, Messungen, Einblick in das Publikum und Produkt Entwicklung.

    Werbungen und Inhalte können personalisiert werden, basierend auf ein Profil. Mehr Daten können besser personalisierte Werbungen und Inhalte hinzufügen. Werbung und Inhalte können gezeigt und gemessen werden. Einblicke über das Publikum, welche die Werbung gesehen haben und den Inhalt, können abgeleitet werden. So wie Daten können genutzt werden, um es zu verbessern oder die Benutzer Erfahrung zu verbessern das System und die Software.

Wenn du “Ich stimme zu” klickst, erlaubst du uns, die Cookies zu benutzen die Geräte Bezeichnung, den Web oder ähnliche Technologien zu benutzen. Deine Settings, können in deinem Gerät bei deinem Browser geändert werden.

Für den bestimmten Zweck, berechtigten Interessen beruhen darauf, mehr als auf den Inhalt. Du kannst mehr darüber in unseren Privaten und Cookie Politik lesen.